Temp
-10 -11 -11 -11 -11 -11 -11 -11 -11 -11 -12 -13 -13 -14 -13 -14 -15 -18 -19 -20 -22 -23 -23 -22 -23 -23 -23 -23 -23 -23 -22 -20 -18 -18 -18 -16 -14 -13 -12 -12 -11 -11 -11
-11 -11 -11 -11 -11 -11 -12 -12 -12 -12 -13 -13 -14 -14 -14 -14 -16 -18 -19 -21 -22 -22 -23 -22 -22 -22 -22 -22 -22 -22 -21 -19 -17 -18 -16 -16 -15 -13 -12 -12 -11 -11 -11
-11 -11 -11 -11 -11 -11 -12 -12 -12 -12 -13 -14 -14 -14 -14 -15 -17 -18 -19 -21 -22 -22 -22 -22 -22 -22 -22 -22 -22 -21 -19 -18 -19 -16 -16 -16 -14 -13 -12 -12 -11 -11 -11
-11 -11 -11 -12 -12 -12 -12 -12 -12 -13 -13 -14 -14 -14 -14 -15 -18 -18 -19 -21 -22 -22 -22 -22 -22 -22 -22 -21 -21 -20 -20 -20 -18 -17 -15 -16 -14 -13 -13 -12 -11 -11 -11
-12 -12 -11 -12 -12 -12 -12 -12 -13 -13 -14 -14 -14 -14 -15 -16 -18 -18 -19 -21 -21 -22 -21 -22 -21 -21 -21 -21 -20 -20 -20 -19 -18 -16 -16 -16 -15 -13 -12 -12 -11 -11 -11
-12 -12 -12 -12 -12 -12 -12 -13 -13 -13 -14 -14 -14 -15 -15 -16 -18 -18 -19 -20 -21 -21 -21 -21 -21 -21 -21 -21 -20 -20 -19 -19 -17 -16 -16 -15 -14 -13 -12 -11 -11 -10 -11
-12 -12 -12 -12 -12 -12 -13 -13 -13 -14 -14 -15 -15 -15 -16 -17 -19 -18 -19 -20 -21 -21 -21 -21 -21 -20 -20 -20 -20 -19 -18 -18 -17 -16 -15 -15 -14 -13 -12 -11 -11 -10 -11
-12 -12 -12 -12 -13 -13 -13 -13 -13 -14 -14 -15 -15 -15 -16 -18 -19 -18 -19 -20 -21 -20 -20 -20 -20 -20 -20 -20 -19 -19 -19 -18 -17 -16 -15 -15 -15 -12 -12 -11 -11 -12 -11
-12 -12 -12 -12 -13 -13 -13 -14 -14 -14 -15 -15 -15 -15 -16 -19 -19 -19 -19 -20 -21 -20 -20 -20 -20 -20 -19 -20 -20 -18 -19 -17 -16 -16 -15 -15 -14 -14 -12 -13 -12 -11 -11
-13 -12 -12 -12 -13 -13 -14 -14 -15 -15 -15 -15 -15 -15 -16 -19 -19 -19 -20 -21 -21 -20 -20 -20 -20 -20 -19 -19 -19 -18 -18 -18 -16 -16 -14 -14 -14 -14 -13 -12 -12 -11 -11
-13 -13 -13 -13 -14 -14 -14 -14 -15 -15 -15 -15 -15 -15 -18 -19 -19 -19 -20 -21 -21 -20 -20 -20 -20 -20 -19 -19 -18 -17 -17 -17 -16 -15 -14 -14 -14 -13 -12 -12 -12 -11 -11
-13 -13 -13 -14 -14 -14 -14 -15 -15 -15 -15 -15 -15 -16 -19 -19 -19 -19 -20 -21 -21 -21 -20 -20 -20 -20 -19 -19 -18 -17 -16 -16 -15 -15 -14 -13 -14 -12 -12 -12 -11 -11 -11
-13 -13 -14 -14 -14 -14 -14 -15 -15 -15 -15 -15 -15 -17 -19 -19 -19 -20 -20 -21 -21 -21 -20 -19 -19 -19 -19 -19 -18 -17 -17 -17 -15 -15 -14 -14 -14 -12 -11 -12 -12 -12 -12
-14 -14 -14 -14 -14 -14 -15 -15 -15 -15 -15 -15 -16 -18 -19 -19 -19 -20 -21 -22 -21 -21 -20 -20 -19 -19 -19 -18 -17 -16 -16 -16 -14 -14 -14 -13 -14 -11 -12 -12 -12 -11 -11
-14 -14 -14 -14 -14 -14 -15 -15 -15 -15 -15 -15 -17 -19 -19 -19 -20 -20 -21 -21 -20 -20 -20 -20 -19 -19 -18 -17 -16 -16 -16 -16 -15 -14 -14 -14 -12 -12 -12 -12 -12 -11 -11
-14 -14 -14 -14 -15 -15 -15 -15 -15 -15 -15 -16 -18 -19 -19 -19 -20 -20 -21 -21 -20 -20 -20 -19 -19 -19 -19 -18 -17 -16 -16 -14 -14 -14 -14 -14 -13 -12 -13 -12 -12 -12 -12
-14 -14 -15 -15 -15 -15 -15 -15 -15 -16 -15 -17 -18 -19 -20 -20 -20 -21 -21 -21 -20 -20 -20 -20 -19 -19 -18 -17 -16 -16 -16 -15 -14 -13 -14 -13 -13 -13 -12 -12 -12 -12 -12
-14 -15 -15 -15 -15 -15 -15 -15 -15 -15 -16 -19 -19 -19 -20 -21 -21 -21 -21 -21 -20 -20 -20 -19 -19 -18 -18 -17 -16 -16 -15 -14 -14 -14 -14 -13 -12 -11 -11 -12 -12 -12 -12
-14 -15 -15 -15 -15 -15 -15 -16 -15 -15 -16 -19 -19 -20 -20 -21 -21 -21 -21 -21 -20 -20 -20 -19 -19 -18 -17 -17 -16 -15 -15 -15 -14 -13 -14 -13 -12 -12 -12 -12 -12 -13 -12
-15 -15 -15 -15 -15 -15 -16 -16 -15 -15 -17 -19 -20 -20 -21 -21 -22 -22 -22 -21 -20 -20 -20 -19 -19 -18 -17 -17 -17 -15 -15 -14 -14 -14 -13 -13 -13 -12 -12 -12 -12 -12 -12
-15 -16 -16 -16 -16 -16 -16 -16 -15 -16 -18 -19 -20 -20 -21 -21 -22 -22 -22 -20 -20 -20 -20 -19 -19 -18 -17 -16 -16 -15 -15 -14 -14 -13 -13 -13 -12 -12 -12 -12 -12 -13 -13
-16 -16 -16 -16 -16 -16 -16 -16 -16 -17 -19 -19 -20 -20 -21 -22 -22 -22 -22 -21 -20 -20 -20 -20 -19 -18 -17 -16 -16 -15 -14 -14 -14 -13 -13 -13 -12 -12 -12 -12 -13 -14 -13
-16 -16 -16 -16 -16 -16 -16 -16 -16 -18 -19 -20 -20 -21 -22 -22 -22 -22 -22 -21 -20 -20 -20 -20 -19 -18 -17 -17 -17 -15 -14 -14 -13 -13 -13 -13 -13 -12 -12 -12 -12 -13 -13
-17 -16 -16 -16 -16 -16 -16 -16 -18 -19 -20 -20 -20 -21 -22 -22 -23 -22 -22 -21 -20 -20 -20 -20 -19 -18 -17 -16 -16 -16 -14 -13 -13 -13 -13 -12 -12 -12 -12 -12 -12 -12 -14
-17 -16 -16 -16 -16 -16 -16 -17 -19 -20 -20 -20 -21 -22 -22 -23 -23 -23 -23 -22 -21 -20 -20 -20 -19 -19 -17 -17 -16 -15 -15 -14 -14 -13 -13 -13 -12 -12 -12 -12 -12 -13 -13
-17 -17 -16 -16 -16 -16 -17 -18 -19 -20 -20 -21 -21 -22 -23 -23 -24 -24 -24 -23 -21 -21 -20 -20 -20 -19 -18 -17 -16 -16 -15 -14 -14 -13 -13 -13 -12 -12 -12 -12 -12 -12 -12
Height
5759 5755 5751 5745 5740 5734 5728 5721 5714 5707 5699 5689 5678 5666 5652 5636 5618 5603 5588 5572 5557 5550 5545 5540 5534 5527 5521 5517 5513 5512 5512 5518 5535 5554 5572 5594 5616 5635 5658 5681 5697 5710 5721
5749 5744 5739 5734 5729 5723 5716 5709 5702 5695 5686 5676 5665 5653 5638 5621 5605 5594 5579 5563 5550 5546 5541 5536 5530 5524 5518 5514 5510 5509 5511 5513 5528 5550 5569 5584 5602 5626 5650 5666 5683 5698 5711
5737 5733 5728 5722 5717 5710 5704 5697 5690 5683 5674 5664 5653 5641 5626 5610 5595 5584 5569 5557 5545 5541 5537 5531 5526 5521 5518 5515 5511 5508 5512 5520 5532 5546 5562 5579 5594 5616 5642 5659 5673 5689 5704
5725 5720 5716 5710 5705 5699 5693 5686 5678 5671 5663 5653 5640 5628 5614 5598 5584 5574 5562 5550 5540 5536 5532 5527 5522 5519 5515 5512 5511 5510 5519 5532 5541 5550 5556 5573 5589 5608 5629 5649 5663 5676 5694
5713 5709 5704 5699 5694 5687 5681 5674 5667 5659 5650 5641 5630 5616 5601 5586 5575 5566 5555 5543 5534 5530 5526 5523 5519 5516 5513 5510 5512 5517 5522 5530 5533 5544 5559 5575 5585 5601 5618 5640 5658 5673 5687
5702 5698 5694 5688 5683 5676 5670 5663 5656 5648 5640 5630 5618 5605 5591 5576 5565 5555 5545 5536 5528 5524 5521 5519 5516 5512 5511 5510 5511 5514 5519 5526 5534 5547 5560 5571 5582 5596 5618 5635 5650 5664 5678
5692 5688 5683 5677 5671 5665 5658 5652 5644 5637 5628 5617 5606 5593 5579 5564 5555 5545 5536 5527 5522 5519 5515 5514 5512 5511 5510 5511 5514 5516 5525 5528 5536 5549 5560 5568 5581 5596 5615 5628 5648 5663 5682
5680 5676 5671 5666 5660 5654 5647 5640 5632 5625 5616 5605 5594 5581 5567 5552 5544 5535 5527 5518 5514 5513 5510 5509 5509 5510 5509 5511 5515 5519 5523 5529 5536 5549 5558 5568 5581 5594 5606 5627 5647 5663 5680
5669 5665 5660 5655 5649 5643 5636 5629 5621 5614 5605 5594 5582 5570 5556 5543 5533 5525 5517 5509 5504 5505 5506 5504 5504 5505 5506 5508 5512 5517 5522 5529 5534 5547 5559 5566 5581 5587 5601 5618 5636 5657 5675
5658 5653 5648 5643 5638 5632 5625 5618 5611 5603 5594 5583 5571 5557 5543 5532 5522 5514 5506 5498 5495 5497 5498 5500 5500 5499 5501 5503 5507 5513 5520 5526 5535 5546 5554 5564 5576 5585 5602 5621 5638 5655 5671
5645 5641 5637 5632 5627 5621 5615 5607 5600 5591 5582 5572 5561 5546 5529 5518 5510 5502 5495 5486 5484 5488 5491 5493 5495 5497 5499 5500 5504 5508 5516 5523 5532 5543 5552 5564 5574 5589 5602 5617 5636 5656 5673
5634 5630 5625 5621 5616 5610 5603 5596 5589 5580 5571 5561 5548 5534 5517 5507 5498 5491 5481 5473 5474 5479 5484 5486 5490 5492 5493 5496 5501 5506 5515 5525 5535 5543 5553 5566 5576 5591 5605 5621 5636 5654 5666
5622 5619 5614 5610 5605 5599 5592 5586 5579 5569 5560 5550 5536 5521 5508 5496 5486 5478 5467 5461 5465 5472 5477 5481 5484 5488 5487 5491 5496 5505 5515 5523 5533 5543 5556 5567 5577 5593 5606 5619 5632 5647 5661
5611 5607 5604 5600 5594 5588 5582 5576 5568 5558 5548 5538 5524 5509 5498 5487 5477 5467 5455 5453 5459 5466 5471 5475 5479 5482 5482 5487 5495 5505 5514 5522 5533 5544 5555 5563 5574 5587 5602 5614 5630 5644 5656
5600 5597 5593 5589 5584 5578 5572 5565 5556 5546 5536 5525 5510 5500 5491 5480 5468 5458 5449 5448 5455 5461 5466 5470 5475 5478 5479 5486 5495 5502 5511 5519 5529 5542 5552 5562 5575 5586 5601 5613 5627 5642 5655
5589 5586 5582 5578 5574 5568 5562 5554 5544 5534 5523 5511 5498 5490 5480 5470 5462 5451 5444 5443 5451 5457 5461 5466 5470 5474 5478 5484 5494 5503 5511 5520 5531 5542 5554 5564 5575 5587 5600 5611 5627 5639 5653
5578 5574 5571 5568 5564 5559 5552 5544 5535 5522 5509 5498 5488 5480 5472 5462 5455 5447 5439 5440 5448 5454 5459 5463 5467 5471 5475 5482 5491 5496 5505 5516 5528 5539 5552 5562 5574 5585 5596 5609 5623 5636 5650
5566 5563 5561 5558 5554 5548 5541 5533 5525 5514 5500 5484 5477 5471 5464 5454 5448 5442 5436 5438 5445 5450 5455 5460 5465 5467 5472 5479 5489 5498 5505 5515 5527 5537 5547 5559 5572 5584 5596 5608 5619 5635 5648
5555 5553 5551 5548 5543 5537 5530 5523 5514 5503 5490 5480 5471 5462 5456 5447 5441 5437 5432 5434 5441 5446 5451 5456 5460 5463 5469 5478 5486 5495 5504 5516 5525 5536 5545 5557 5568 5581 5591 5600 5614 5631 5645
5545 5543 5540 5537 5533 5526 5519 5512 5503 5492 5479 5471 5463 5456 5448 5440 5433 5430 5426 5429 5436 5442 5446 5452 5455 5459 5468 5476 5483 5491 5502 5513 5524 5534 5544 5555 5566 5578 5587 5597 5610 5624 5639
5534 5532 5530 5527 5522 5516 5509 5501 5492 5480 5470 5463 5455 5447 5439 5433 5425 5422 5418 5422 5430 5437 5442 5448 5452 5455 5464 5472 5479 5489 5500 5509 5519 5529 5540 5552 5563 5574 5582 5593 5605 5618 5633
5524 5522 5521 5517 5512 5505 5498 5490 5480 5470 5462 5454 5446 5436 5429 5422 5414 5412 5410 5414 5423 5431 5438 5445 5448 5453 5461 5468 5476 5485 5495 5507 5516 5524 5534 5547 5559 5568 5579 5589 5599 5613 5627
5514 5513 5511 5507 5502 5495 5487 5479 5469 5460 5452 5445 5435 5426 5419 5412 5404 5401 5402 5407 5416 5424 5432 5438 5444 5449 5455 5464 5473 5482 5491 5500 5510 5520 5530 5540 5553 5565 5576 5586 5597 5609 5622
5505 5503 5501 5497 5492 5485 5477 5468 5458 5450 5444 5435 5425 5417 5410 5402 5395 5392 5394 5401 5410 5419 5427 5433 5440 5446 5453 5460 5467 5476 5486 5494 5504 5514 5524 5536 5550 5559 5570 5579 5591 5603 5617
5496 5495 5492 5487 5482 5476 5467 5457 5450 5441 5434 5424 5415 5408 5400 5393 5388 5385 5388 5394 5404 5414 5423 5430 5435 5442 5448 5455 5463 5471 5479 5488 5499 5509 5520 5530 5543 5555 5564 5574 5584 5596 5607
5488 5486 5483 5478 5473 5466 5457 5448 5441 5433 5423 5416 5407 5399 5391 5383 5380 5379 5381 5388 5398 5408 5417 5425 5432 5438 5445 5453 5460 5468 5476 5484 5492 5502 5514 5525 5536 5547 5557 5568 5579 5590 5600
Wind_Speed
42 44 44 44 45 47 48 49 53 58 61 63 65 70 79 86 83 69 68 69 57 26 28 26 31 26 29 24 24 26 26 51 74 65 69 81 83 83 80 70 63 61 57
44 44 44 44 45 47 47 51 55 59 60 63 66 71 79 85 75 65 63 61 47 29 27 31 26 27 22 24 26 26 32 70 58 58 56 79 85 86 82 74 68 64 60
44 45 44 45 46 48 49 52 56 58 60 63 66 73 80 85 66 64 60 55 39 28 27 32 24 24 18 19 21 19 39 58 48 57 52 67 84 84 82 72 69 65 60
45 44 44 45 47 47 50 54 56 57 59 63 66 74 79 83 61 62 58 53 34 29 29 29 23 22 15 20 15 18 42 47 63 81 53 66 77 83 82 74 73 70 64
45 43 44 46 47 48 50 54 56 57 59 62 67 73 78 81 58 60 58 52 30 29 27 23 22 24 19 13 21 32 15 19 44 64 62 65 68 79 82 77 73 70 67
45 43 44 45 47 48 51 53 54 57 58 63 68 73 78 76 55 60 57 51 27 26 24 20 18 15 7 15 23 14 14 22 45 61 59 55 66 77 78 77 76 74 73
45 44 45 48 48 48 51 52 53 55 58 62 69 75 81 67 55 58 55 51 26 23 24 25 16 10 7 9 20 10 13 28 56 58 54 58 59 70 73 78 77 70 71
44 45 47 48 47 47 50 52 53 55 59 64 71 75 83 60 54 57 53 50 26 22 25 21 16 13 10 10 17 23 21 31 40 52 54 53 52 72 82 78 75 72 70
44 45 46 46 45 47 49 51 52 55 59 65 72 77 79 55 55 58 53 49 26 26 23 22 18 14 15 14 14 19 25 40 52 48 46 46 64 62 82 80 80 74 71
43 44 45 45 45 46 48 49 51 55 60 66 73 78 74 54 56 59 53 47 25 26 27 22 18 14 16 15 12 17 28 39 44 45 33 56 58 61 78 77 75 74 73
42 42 45 45 44 45 47 48 51 55 60 65 73 82 66 55 58 60 52 43 25 27 26 22 18 15 17 19 14 23 31 50 45 54 48 63 53 64 70 70 72 73 69
43 43 47 42 40 44 45 47 50 55 61 67 74 78 59 59 62 58 51 34 28 27 25 22 21 15 19 21 19 21 39 53 52 52 47 57 52 73 74 70 72 75 71
42 43 41 37 40 43 44 46 51 57 62 69 76 69 57 60 59 54 47 22 31 28 27 24 21 20 19 22 22 24 43 50 53 55 51 43 46 71 78 71 78 77 71
41 40 37 39 42 43 43 47 53 59 64 70 71 61 57 61 53 54 38 16 32 28 29 25 20 17 23 27 27 26 45 51 56 58 57 41 47 68 79 66 79 78 73
41 38 37 40 41 42 43 48 54 60 66 72 65 56 57 56 50 50 23 16 32 29 29 24 20 16 25 33 34 27 45 51 53 61 60 42 55 59 70 67 77 78 72
40 37 37 40 40 40 44 49 55 61 69 67 58 54 57 52 46 47 20 19 35 29 28 24 18 18 32 28 30 30 33 55 60 57 58 51 53 60 69 59 78 77 71
39 35 38 38 38 39 45 51 55 64 67 59 54 54 54 47 42 44 16 24 34 32 28 23 19 22 25 31 41 33 29 57 59 60 64 54 54 56 63 52 83 76 72
37 34 36 36 37 41 46 51 55 62 65 53 54 54 50 43 40 40 13 32 35 34 29 24 21 27 29 36 43 41 50 59 54 67 62 52 52 59 59 58 80 77 70
34 34 33 35 36 41 47 51 57 63 60 50 52 52 43 38 40 36 14 38 38 36 30 25 21 26 31 35 37 45 54 56 58 63 66 52 40 51 48 69 79 71 69
33 32 32 33 37 41 47 51 58 63 53 48 46 44 39 36 40 34 17 42 42 38 32 27 23 30 35 30 32 48 53 50 54 61 59 57 51 43 49 65 74 78 72
30 30 31 32 36 41 46 53 59 59 47 42 43 44 37 39 40 32 17 45 45 41 34 30 26 32 34 35 38 55 56 55 56 60 61 58 51 51 46 63 73 71 68
29 28 29 32 37 41 46 55 58 52 43 40 42 45 41 43 36 28 16 46 47 43 36 33 30 32 36 37 40 51 49 56 53 53 66 60 56 54 52 61 70 67 65
25 25 28 32 37 41 47 56 52 47 40 40 41 45 43 43 34 23 17 48 49 44 36 32 31 32 33 36 35 48 57 55 52 55 60 61 65 58 53 59 63 70 68
22 24 28 32 37 42 50 52 47 42 39 40 42 44 45 42 28 18 18 47 53 45 38 34 34 35 39 42 41 42 57 52 48 53 62 58 69 56 58 60 56 59 71
21 24 27 32 37 44 49 47 43 38 38 39 43 45 47 40 23 16 20 44 53 48 43 35 35 35 38 44 44 47 50 49 45 49 55 54 67 67 59 52 48 61 67
21 24 28 33 39 44 47 42 39 36 37 40 44 45 46 39 22 15 23 41 54 48 41 39 38 36 39 47 38 39 45 51 50 50 55 54 56 64 63 52 50 56 61
Wind_Direction
297 298 300 301 303 306 307 309 313 316 317 319 319 322 324 326 331 326 329 329 326 302 298 297 308 313 310 308 291 292 224 191 182 194 199 200 197 200 198 199 197 203 201
296 299 301 302 303 307 308 312 315 316 318 319 320 323 326 330 331 329 332 331 324 306 301 303 307 311 302 307 311 294 212 190 173 166 174 203 198 198 194 196 193 201 201
298 301 302 305 306 308 310 313 315 317 319 319 322 325 328 335 328 331 331 330 314 300 303 306 312 311 305 315 300 276 192 172 179 176 172 193 200 197 195 194 194 198 201
300 303 304 305 307 309 310 313 316 318 318 320 324 327 331 336 326 330 330 329 307 293 301 313 305 300 299 307 272 185 159 175 192 189 174 189 196 193 196 193 194 196 198
301 304 306 305 307 309 311 314 317 318 319 321 325 329 332 336 324 331 330 331 301 293 298 301 300 306 296 260 217 180 185 166 187 175 178 188 199 195 194 193 194 199 196
300 305 306 304 307 308 311 314 317 317 319 322 327 331 332 334 324 330 330 334 295 290 286 297 296 309 248 256 231 197 196 200 188 170 175 182 195 195 191 195 195 197 195
301 306 306 306 308 308 311 314 317 317 319 323 329 332 332 330 322 328 328 334 290 287 279 299 278 287 222 216 209 185 229 195 193 182 185 176 195 195 191 196 194 196 192
302 307 306 306 305 309 311 315 316 317 320 325 328 331 332 325 322 326 325 332 284 272 282 296 270 259 212 226 233 230 212 190 199 181 190 191 194 190 187 191 192 189 186
304 304 305 306 306 309 312 316 316 318 322 326 329 331 333 323 323 326 323 326 277 257 268 287 277 268 230 225 209 226 226 188 184 177 184 193 180 191 188 189 188 185 185
303 302 304 303 308 309 314 315 317 320 324 326 331 330 331 322 324 324 321 321 267 246 259 265 265 276 211 201 204 224 218 212 190 193 178 177 188 190 187 187 185 182 185
298 300 304 303 307 310 313 316 320 322 325 327 331 330 327 321 323 322 322 314 242 230 245 249 255 255 221 210 216 233 234 199 187 189 188 185 191 191 176 183 186 182 187
296 296 303 303 305 311 314 318 320 322 324 328 330 330 325 324 324 321 322 304 222 218 233 239 240 248 231 202 185 212 215 194 184 188 173 180 180 188 183 187 183 181 180
295 301 300 302 308 312 316 319 320 322 326 329 330 330 326 325 323 325 321 284 208 209 227 228 231 234 241 212 175 206 211 208 188 194 181 177 186 190 184 187 182 180 182
297 297 298 304 310 313 316 318 321 324 327 330 330 330 328 326 324 332 321 247 203 204 219 225 223 240 204 181 167 184 206 197 186 189 190 171 181 191 191 191 181 185 184
295 294 300 306 309 313 316 319 323 328 331 332 332 330 329 327 326 336 314 229 200 204 213 217 219 223 184 168 168 174 183 195 193 191 192 182 171 189 187 189 183 188 188
293 295 301 306 310 313 317 321 326 331 334 333 331 331 328 328 329 339 310 217 197 204 208 215 215 203 192 171 185 189 193 195 194 193 192 189 188 196 198 191 183 188 188
287 297 303 305 311 314 318 323 328 331 331 333 331 328 326 326 331 338 299 199 193 201 204 208 206 190 185 181 183 184 195 187 189 189 182 182 193 199 198 199 185 192 190
288 299 301 306 311 315 321 326 329 332 332 331 329 326 324 324 331 336 286 192 193 199 202 199 199 172 179 171 188 195 183 187 189 181 184 181 191 194 201 202 188 194 193
291 297 300 307 312 317 324 329 332 332 333 331 327 325 323 322 327 332 290 193 193 198 200 194 186 169 168 179 187 192 184 184 183 185 187 186 190 185 191 197 193 189 194
290 294 301 307 312 320 327 331 334 333 332 328 328 326 321 320 321 323 290 193 193 195 201 194 183 167 176 183 186 189 187 187 190 191 193 193 195 188 191 197 195 192 193
289 295 302 308 314 322 328 333 334 333 327 326 326 332 328 320 313 311 281 193 192 195 201 195 185 166 176 186 183 189 191 189 192 195 196 194 197 195 195 198 192 190 192
289 296 304 308 316 323 329 334 334 329 323 325 326 336 332 326 314 305 257 194 195 197 201 194 184 170 177 179 189 186 187 192 189 197 194 193 193 199 199 196 187 191 195
289 299 303 313 321 326 331 333 331 323 321 325 330 337 333 329 315 299 241 193 196 199 200 191 182 181 177 178 185 184 182 182 182 190 196 196 195 197 200 198 196 190 196
292 299 307 319 323 329 331 333 325 321 322 329 336 338 335 331 317 288 230 194 194 196 196 191 187 186 185 186 187 184 184 188 189 186 193 192 192 199 197 202 201 197 196
293 301 314 321 326 330 333 332 321 320 325 334 339 338 338 332 315 271 225 197 192 194 196 194 188 189 190 195 189 190 189 191 192 187 187 190 195 200 201 204 205 200 201
294 309 320 324 328 332 335 330 319 320 332 336 340 339 338 333 314 253 219 198 191 194 194 193 187 189 188 198 195 191 189 190 187 193 192 191 188 190 204 205 203 201 204